AirNav   ProFlight Series 2 Aviation Headset
 
 1035 users online  

26PN Leeds & Northrup Co Heliport
North Wales, Pennsylvania, USA

GOING TO NORTH WALES?


FAA INFORMATION EFFECTIVE 18 JUNE 2020

Location

FAA Identifier: 26PN
Lat/Long: 40-13-00.3850N 075-16-43.6330W
40-13.006417N 075-16.727217W
40.2167736,-75.2787869
(estimated)
Elevation: 346 ft. / 105 m (estimated)
Variation: 11W (1985)
From city: 1 mile NW of NORTH WALES, PA
Time zone: UTC -4 (UTC -5 during Standard Time)
Zip code: 19454

Heliport Operations

Heliport use: Private use. Permission required prior to landing
Activation date: 05/1979
Control tower: no
ARTCC: NEW YORK CENTER
FSS: WILLIAMSPORT FLIGHT SERVICE STATION
Attendance: UNATNDD
Wind indicator: yes
Segmented circle: no
Lights: ACTVT PERIMETER LGTS - 121.7, 5 CLICKS.

Heliport Communications

WX AWOS-3 at LOM (5 nm S): 118.925 (215-646-1068)
WX ASOS at DYL (10 nm NE): 118.875 (215-345-0392)
WX AWOS-3 at CKZ (10 nm N): 126.325 (215-257-7291)
WX ASOS at PTW (13 nm W): 119.425 (610-495-0823)
WX AWOS-3 at UKT (14 nm N): 119.475 (215-538-7610)
WX ASOS at PNE (15 nm SE): 121.15 (215-677-0146)
WX AWOS-3T at OQN (19 nm SW): 121.4 ((610) 692-6190)

Nearby radio navigation aids

VOR radial/distance  VOR name  Freq  Var
PTWr100/12.9POTTSTOWN VORTAC116.5009W
ARDr273/17.1YARDLEY VOR/DME108.2010W
MXEr054/25.4MODENA VORTAC113.2009W
ETXr149/28.6EAST TEXAS VOR/DME110.2009W
FJCr175/31.6ALLENTOWN VORTAC117.5010W
SBJr238/32.9SOLBERG VOR/DME112.9010W
GXUr304/33.7MC GUIRE VORTAC110.6012W
OODr012/34.9WOODSTOWN VORTAC112.8010W
DQOr035/35.7DUPONT VORTAC114.0010W
RBVr281/35.9ROBBINSVILLE VORTAC113.8010W

 
NDB name  Hdg/Dist  Freq  Var  ID
AMBLER015/5.527512WING .. -. --.

Heliport Services

Runway Information

Helipad H1

Dimensions: 40 x 40 ft. / 12 x 12 m
Surface: concrete, in fair condition
Runway edge lights: PERI
Latitude: 40-13.006417N
Longitude: 075-16.727217W
Elevation: 346.0 ft.
Traffic pattern: leftleft
Markings: none, in fair condition

Heliport Ownership and Management from official FAA records

Ownership: Privately-owned
Owner: LEEDS & NORTHRUP
351 SUMNEYTOWN PIKE
NORTH WALES, PA 19454
Phone 215-699-2000
Manager: D. HURCHALLA
351 SUMNEYTOWN PIKE
NORTH WALES, PA 19454
Phone 215-699-2000

Additional Remarks

FOR CD CTC PHILADELPHIA APCH AT 800-354-9884.

Instrument Procedures

There are no published instrument procedures at 26PN.

Some nearby airports with instrument procedures:

KLOM - Wings Field Airport (5 nm S)
N10 - Perkiomen Valley Airport (7 nm W)
KDYL - Doylestown Airport (10 nm NE)
KCKZ - Pennridge Airport (10 nm N)
KPTW - Heritage Field Airport (13 nm W)
KUKT - Quakertown Airport (14 nm N)
KPNE - Northeast Philadelphia Airport (15 nm SE)
N47 - Pottstown Municipal Airport (18 nm W)
KOQN - Brandywine Regional Airport (19 nm SW)
 
Loc | Ops | Rwys | IFR | FBO | Links
Com | Nav | Svcs | Stats | Notes
Area around 26PN (Leeds & Northrup Co Heliport)
 
Road maps at: MapQuest Bing Google
 
Aerial photo
No photo
 
Sectional chart

 
Airport distance calculator
Flying to Leeds & Northrup Co Heliport? Find the distance to fly.

From to 26PN

Sunrise and sunset
Times for 12-Jul-2020
 Local
(UTC-4)
 Zulu
(UTC)
Morning civil twilight05:1209:12
Sunrise05:4409:44
Sunset20:3000:30
Evening civil twilight21:0201:02

Current date and time
Zulu (UTC)  12-Jul-2020 18:34:43
Local (UTC-4)  12-Jul-2020 14:34:43
 
METAR
KLOM 
5nm S 
121815Z AUTO 21007KT 10SM SCT060 30/18 A2976 RMK AO2 P0001 T03040179
KDYL 
10nm NE 
121754Z AUTO 27008G16KT 10SM CLR 32/16 A2975 RMK AO2 SLP068 T03220156 10322 20250 58008
KCKZ 
10nm N 
121815Z AUTO 29007KT 10SM CLR 29/16 A2978 RMK AO2
KPTW 
12nm W 
121754Z AUTO 21007KT 8SM FEW055 SCT065 30/17 A2978 RMK AO2 SLP078 T03000167 10300 20228 58008
KUKT 
14nm N 
121815Z AUTO 21005G11KT 10SM FEW055 FEW100 30/17 A2977 RMK A01
KPNE 
14nm SE 
121754Z 25011KT 10SM FEW065 31/16 A2976 RMK AO2 SLP077 T03060161 10311 20239 56011
KOQN 
19nm SW 
121815Z AUTO 22005KT 10SM SCT060 31/15 A2978 RMK AO2
TAF
KPNE 
14nm SE 
121726Z 1218/1318 27008KT P6SM SCT060 BKN120 FM122200 24006KT P6SM VCSH BKN050 FM130000 25006KT P6SM -SHRA BKN045 FM130600 VRB02KT P6SM BKN060 FM131300 28006KT P6SM BKN200
NOTAMs
Click for the latest NOTAMs
NOTAMs are issued by the DoD/FAA and will open in a separate window not controlled by AirNav.

 

 
 

Would you like to see your business listed on this page?

 If your business provides an interesting product or service to pilots, flight crews, aircraft, or users of the Leeds & Northrup Co Heliport, you should consider listing it here.  To start the listing process, click on the button below
 
Add a business
 

Other Pages about Leeds & Northrup Co Heliport

Update a link
 
Copyright © AirNav, LLC. All rights reserved. Privacy Policy  Contact